Location: Great Falls Observatory Park
(38.9954°N, 77.3130°W)
Time: 08:12:25
(UTC-04:00)

N. Korean satellite - Visible Passes

Search period start: 16 October 2019 00:00
Search period end: 26 October 2019 00:00
Orbit: 455 x 508 km, 97.2° (Epoch: 15 October)

Date Brightness Start Highest point End Pass type
(mag) Time Alt. Az. Time Alt. Az. Time Alt. Az.
16 Oct 10.4 19:25:07 10° WSW 19:26:20 11° W 19:27:32 10° WNW visible
17 Oct 7.6 06:49:53 10° NNE 06:53:26 54° E 06:56:59 10° S visible
17 Oct 9.3 18:58:02 10° SSW 19:00:52 24° W 19:03:44 10° NW visible
18 Oct 9.3 06:25:03 10° NE 06:28:04 25° E 06:31:06 10° SSE visible
19 Oct 10.3 06:01:08 10° ENE 06:02:38 12° E 06:04:06 10° ESE visible
20 Oct 10.1 19:16:29 10° SW 19:18:27 14° W 19:20:25 10° WNW visible
21 Oct 8.1 06:42:08 10° NNE 06:45:37 42° E 06:49:07 10° S visible
21 Oct 8.8 18:49:57 10° SSW 18:53:00 31° W 18:56:06 10° NNW visible
22 Oct 9.7 06:17:28 10° NE 06:20:14 20° E 06:23:00 10° SE visible
24 Oct 6.9 06:59:27 10° NNE 07:03:07 76° ESE 07:06:48 10° S visible
24 Oct 9.8 19:08:05 10° SW 19:10:32 18° W 19:13:00 10° NW visible
25 Oct 8.6 06:34:25 10° NNE 06:37:46 33° E 06:41:09 10° SSE visible
25 Oct 8.2 18:41:52 10° S 18:45:06 39° W 18:48:24 10° NNW visible
